GW5916 Weather Reports


Display with metric or nautical units.
time (UTC)temp
F
wind
direction
speed
MPH
gust
MPH
rain 1hr
in
rain 24hr
in
rain mn
in
humidity
%
barometer
mb
20260906125350 67 137 4.0 6.0 0.00 0.00 0.00 99 1069.0
20260906124844 67 95 5.0 6.0 0.00 0.00 0.00 99 1069.1
20260906124341 68 101 5.0 6.0 0.00 0.00 0.00 99 1068.9
20260906123840 68 80 4.0 5.0 0.00 0.00 0.00 99 1069.1
20260906123335 68 146 4.0 6.0 0.00 0.00 0.00 99 1068.8
20260906122834 67 142 5.0 6.0 0.00 0.00 0.00 99 1068.9
20260906122330 67 148 6.0 9.0 0.00 0.00 0.00 99 1068.9
20260906121826 67 141 4.0 6.0 0.00 0.00 0.00 99 1068.9
20260906121322 67 132 4.0 6.0 0.00 0.00 0.00 99 1068.8
20260906120818 67 110 2.0 5.0 0.00 0.00 0.00 99 1068.9
20260906120314 67 145 3.0 5.0 0.00 0.00 0.00 99 1068.9
20260906115810 67 142 3.0 5.0 0.00 0.00 0.00 99 1068.9
20260906115306 67 122 0.0 6.0 0.00 0.00 0.00 99 1068.9
20260906114804 67 129 3.0 6.0 0.00 0.00 0.00 99 1068.8
20260906114300 67 125 2.0 6.0 0.00 0.00 0.00 99 1068.7
20260906113755 67 134 5.0 6.0 0.00 0.00 0.00 99 1068.7
20260906113254 67 130 4.0 6.0 0.00 0.00 0.00 99 1068.6
20260906112755 67 136 3.0 5.0 0.00 0.00 0.00 99 1068.7
20260906112251 67 118 4.0 6.0 0.00 0.00 0.00 99 1068.5
20260906111750 67 126 4.0 6.0 0.00 0.00 0.00 99 1068.7
20260906111249 67 138 7.0 8.0 0.00 0.00 0.00 99 1068.7
20260906110745 67 154 0.0 4.0 0.00 0.00 0.00 99 1068.7
20260906110241 67 137 4.0 5.0 0.00 0.00 0.00 99 1068.5
20260906105740 67 150 4.0 5.0 0.00 0.00 0.00 99 1068.4
20260906105236 67 279 2.0 6.0 0.00 0.00 0.00 99 1068.3
20260906104731 67 144 5.0 10.0 0.00 0.00 0.00 99 1068.1
20260906104230 67 140 4.0 9.0 0.00 0.00 0.00 99 1068.1
20260906103728 68 138 6.0 9.0 0.00 0.00 0.00 99 1068.1
20260906103227 68 141 8.0 9.0 0.00 0.00 0.00 99 1067.9
20260906102723 68 139 5.0 8.0 0.00 0.00 0.00 99 1067.7
20260906102222 68 150 5.0 6.0 0.00 0.00 0.00 99 1067.8
20260906101717 68 120 3.0 6.0 0.00 0.00 0.00 99 1067.7
20260906101213 68 120 3.0 7.0 0.00 0.00 0.00 99 1067.8
20260906100708 68 118 2.0 5.0 0.00 0.00 0.00 99 1067.7
20260906100202 68 108 4.0 6.0 0.00 0.00 0.00 99 1067.7
20260906095657 68 110 3.0 6.0 0.00 0.00 0.00 99 1067.7
20260906095153 68 125 3.0 7.0 0.00 0.00 0.00 99 1067.6
20260906094652 68 105 3.0 7.0 0.00 0.00 0.00 99 1067.6
20260906094148 68 131 4.0 7.0 0.00 0.00 0.00 99 1067.3
20260906093644 68 124 3.0 9.0 0.00 0.00 0.00 99 1067.6
20260906093143 68 115 3.0 5.0 0.00 0.00 0.00 99 1067.4
20260906092638 68 137 5.0 6.0 0.00 0.00 0.00 99 1067.5
20260906092138 68 146 5.0 6.0 0.00 0.00 0.00 99 1067.1
20260906091635 68 162 5.0 7.0 0.00 0.00 0.00 99 1067.2
20260906091131 68 127 5.0 8.0 0.00 0.00 0.00 99 1067.0
20260906090627 68 129 4.0 7.0 0.00 0.00 0.00 99 1067.3
20260906090126 68 151 4.0 6.0 0.00 0.00 0.00 99 1067.2
20260906085625 68 138 6.0 6.0 0.00 0.00 0.00 99 1067.1
20260906085120 68 128 3.0 8.0 0.00 0.00 0.00 99 1067.0
20260906084615 68 121 4.0 7.0 0.00 0.00 0.00 99 1067.1
20260906084113 68 116 3.0 6.0 0.00 0.00 0.00 99 1066.9
20260906083609 68 81 4.0 6.0 0.00 0.00 0.00 99 1067.2
20260906083109 68 100 4.0 7.0 0.00 0.00 0.00 99 1067.2
20260906082604 68 138 4.0 6.0 0.00 0.00 0.00 98 1067.4
20260906082100 68 93 4.0 4.0 0.00 0.00 0.00 98 1067.4
20260906081555 69 105 2.0 4.0 0.00 0.00 0.00 98 1067.4
20260906081051 69 118 2.0 5.0 0.00 0.00 0.00 98 1067.5
20260906080548 69 92 2.0 5.0 0.00 0.00 0.00 98 1067.4
20260906080043 69 103 2.0 7.0 0.00 0.00 0.00 98 1067.3
20260906075543 69 155 4.0 10.0 0.00 0.00 0.00 98 1067.4
20260906075038 69 135 4.0 6.0 0.00 0.00 0.00 98 1067.6
20260906074533 69 144 4.0 7.0 0.00 0.00 0.00 97 1067.4
20260906074031 69 122 6.0 8.0 0.00 0.00 0.00 97 1067.5
20260906073526 69 140 4.0 8.0 0.00 0.00 0.00 97 1067.3
20260906073022 69 165 4.0 7.0 0.00 0.00 0.00 97 1067.3
20260906072517 69 112 3.0 6.0 0.00 0.00 0.00 97 1067.6
20260906072014 69 150 3.0 6.0 0.00 0.00 0.00 97 1067.7
20260906071509 69 134 5.0 7.0 0.00 0.00 0.00 97 1067.5
20260906071004 69 142 2.0 5.0 0.00 0.00 0.00 97 1067.7
20260906070500 69 152 4.0 6.0 0.00 0.00 0.00 98 1067.7
20260906065955 69 149 7.0 8.0 0.00 0.00 0.00 98 1067.5
20260906065450 69 153 4.0 5.0 0.00 0.00 0.00 98 1067.6
20260906064945 69 101 2.0 6.0 0.00 0.00 0.00 98 1067.7
20260906064442 69 116 2.0 5.0 0.00 0.00 0.00 98 1067.6
20260906063941 69 134 3.0 6.0 0.00 0.00 0.00 98 1067.5
20260906063437 69 178 2.0 6.0 0.00 0.00 0.00 98 1067.9
20260906062932 69 144 2.0 5.0 0.00 0.00 0.00 98 1067.9
20260906062427 69 92 2.0 3.0 0.00 0.00 0.00 98 1067.8
20260906061922 69 93 2.0 4.0 0.00 0.00 0.00 98 1067.8
20260906061418 69 127 1.0 3.0 0.00 0.00 0.00 98 1068.1
20260906060912 69 49 0.0 2.0 0.00 0.00 0.00 98 1067.8
20260906060410 69 104 0.0 2.0 0.00 0.00 0.00 98 1067.8
20260906055905 69 86 3.0 3.0 0.00 0.00 0.00 98 1068.1
20260906055401 69 104 1.0 3.0 0.00 0.00 0.00 98 1068.1
20260906054856 69 110 2.0 3.0 0.00 0.00 0.00 98 1068.1
20260906054351 69 100 1.0 2.0 0.00 0.00 0.00 98 1068.3
20260906053847 69 104 0.0 2.0 0.00 0.00 0.00 98 1068.1
20260906053343 70 123 1.0 2.0 0.00 0.00 0.00 97 1067.9
20260906052838 70 107 1.0 3.0 0.00 0.00 0.00 97 1068.2
20260906052335 70 125 1.0 3.0 0.00 0.00 0.00 97 1068.3
20260906051831 70 103 1.0 2.0 0.00 0.00 0.00 98 1068.2
20260906051331 70 79 2.0 2.0 0.00 0.00 0.00 97 1068.2
20260906050827 70 141 1.0 2.0 0.00 0.00 0.00 97 1067.8
20260906050322 70 112 3.0 4.0 0.00 0.00 0.00 97 1067.8
20260906045820 70 88 1.0 3.0 0.00 0.00 0.00 97 1067.8
20260906045315 70 140 2.0 3.0 0.00 0.00 0.00 97 1067.9
20260906044811 70 140 2.0 3.0 0.00 0.00 0.00 97 1068.1
20260906044311 70 72 1.0 2.0 0.00 0.00 0.00 97 1067.9
20260906043806 70 116 3.0 3.0 0.00 0.00 0.00 97 1067.8
20260906043303 71 112 2.0 2.0 0.00 0.00 0.00 97 1067.8
20260906042803 71 156 0.0 2.0 0.00 0.00 0.00 97 1067.9
20260906042302 71 100 2.0 2.0 0.00 0.00 0.00 98 1067.9
20260906041757 71 129 0.0 3.0 0.00 0.00 0.00 98 1067.9
20260906041252 71 130 2.0 2.0 0.00 0.00 0.00 98 1067.9
20260906040748 71 106 2.0 2.0 0.00 0.00 0.00 98 1067.8
20260906040243 71 105 2.0 2.0 0.00 0.00 0.00 98 1067.7
20260906035738 71 116 0.0 1.0 0.00 0.00 0.00 98 1068.1
20260906035234 71 70 1.0 2.0 0.00 0.00 0.00 98 1067.7
20260906034734 71 13 0.0 1.0 0.00 0.00 0.00 98 1068.1
20260906034229 71 84 2.0 2.0 0.00 0.00 0.00 97 1068.2
20260906033725 71 116 0.0 2.0 0.00 0.00 0.00 97 1068.1
20260906033224 71 86 1.0 2.0 0.00 0.00 0.00 97 1067.9
20260906032721 71 119 1.0 1.0 0.00 0.00 0.00 97 1067.9
20260906032221 71 101 1.0 2.0 0.00 0.00 0.00 97 1067.8
20260906031716 71 49 0.0 1.0 0.00 0.00 0.00 97 1067.7
20260906031211 71 79 2.0 2.0 0.00 0.00 0.00 97 1067.8
20260906030706 71 67 1.0 2.0 0.00 0.00 0.00 97 1067.7
20260906030201 71 89 2.0 3.0 0.00 0.00 0.00 97 1067.7
20260906025700 71 73 2.0 3.0 0.00 0.00 0.00 97 1067.6
20260906025159 72 75 1.0 2.0 0.00 0.00 0.00 96 1067.6
20260906024654 72 88 1.0 2.0 0.00 0.00 0.00 96 1067.5
20260906024153 72 97 2.0 2.0 0.00 0.00 0.00 96 1067.4
20260906023649 72 92 1.0 2.0 0.00 0.00 0.00 96 1067.4
20260906023149 72 91 1.0 2.0 0.00 0.00 0.00 96 1067.4
20260906022644 72 118 2.0 2.0 0.00 0.00 0.00 96 1067.1
20260906022140 72 81 3.0 3.0 0.00 0.00 0.00 96 1067.2
20260906021636 72 79 1.0 2.0 0.00 0.00 0.00 95 1067.1
20260906021135 72 97 1.0 2.0 0.00 0.00 0.00 95 1067.0
20260906020634 72 126 2.0 3.0 0.00 0.00 0.00 95 1066.9
20260906020129 73 101 0.0 1.0 0.00 0.00 0.00 94 1066.9
20260906015624 73 102 2.0 3.0 0.00 0.00 0.00 94 1066.8
20260906015123 73 98 2.0 2.0 0.00 0.00 0.00 94 1066.7
20260906014623 73 101 2.0 2.0 0.00 0.00 0.00 94 1066.5
20260906014119 73 98 2.0 3.0 0.00 0.00 0.00 93 1066.4
20260906013614 73 115 2.0 2.0 0.00 0.00 0.00 93 1066.5
20260906013109 73 108 1.0 3.0 0.00 0.00 0.00 93 1066.4
20260906012605 73 139 0.0 3.0 0.00 0.00 0.00 93 1066.2
20260906012104 73 102 2.0 2.0 0.00 0.00 0.00 93 1066.3
20260906011601 73 80 1.0 2.0 0.00 0.00 0.00 93 1066.1
20260906011101 73 138 2.0 2.0 0.00 0.00 0.00 93 1066.2
20260906010556 73 95 0.0 4.0 0.00 0.00 0.00 93 1066.1
20260906010052 74 115 1.0 2.0 0.00 0.00 0.00 92 1066.0
20260906005551 74 100 2.0 4.0 0.00 0.00 0.00 92 1066.1
20260906005051 74 113 2.0 3.0 0.00 0.00 0.00 92 1066.1
20260906004550 74 138 2.0 4.0 0.00 0.00 0.00 92 1065.9
20260906004045 74 139 3.0 5.0 0.00 0.00 0.00 92 1066.0
20260906003540 74 135 3.0 5.0 0.00 0.00 0.00 92 1065.7
20260906003037 74 78 3.0 4.0 0.00 0.00 0.00 91 1065.9
20260906002537 75 132 3.0 6.0 0.00 0.00 0.00 91 1065.8
20260906002031 75 116 2.0 4.0 0.00 0.00 0.00 91 1065.9
20260906001527 75 117 2.0 3.0 0.00 0.00 0.00 91 1065.9
20260906001021 75 89 2.0 2.0 0.00 0.00 0.00 91 1066.1
20260906000517 75 97 1.0 2.0 0.00 0.00 0.00 91 1065.9
20260906000012 75 117 0.0 1.0 0.00 0.00 0.00 91 1066.1
20260905235511 75 112 1.0 3.0 0.00 0.00 0.00 90 1065.9
20260905235007 75 66 1.0 2.0 0.00 0.00 0.00 90 1065.9
20260905234503 75 86 3.0 3.0 0.00 0.00 0.00 90 1065.7
20260905234002 76 125 2.0 2.0 0.00 0.00 0.00 90 1065.7
20260905233458 76 124 1.0 3.0 0.00 0.00 0.00 89 1065.7
20260905232956 76 87 2.0 3.0 0.00 0.00 0.00 89 1065.7
20260905232453 76 106 0.0 3.0 0.00 0.00 0.00 89 1065.6
20260905231948 76 143 2.0 3.0 0.00 0.00 0.00 89 1065.7
20260905231444 76 116 2.0 4.0 0.00 0.00 0.00 89 1065.6
20260905230940 75 71 2.0 4.0 0.00 0.00 0.00 89 1065.6
20260905230438 75 99 1.0 4.0 0.00 0.00 0.00 89 1065.6
20260905225937 76 153 6.0 6.0 0.00 0.00 0.00 88 1065.6
20260905225432 75 99 1.0 4.0 0.00 0.00 0.00 88 1065.6
20260905224927 76 108 0.0 4.0 0.00 0.00 0.00 88 1065.4
20260905224423 76 114 3.0 4.0 0.00 0.00 0.00 88 1065.5
20260905223922 76 108 3.0 8.0 0.00 0.00 0.00 88 1065.5
20260905223420 76 123 3.0 4.0 0.00 0.00 0.00 88 1065.5
20260905222915 76 84 3.0 6.0 0.00 0.00 0.00 88 1065.4
20260905222414 76 107 2.0 8.0 0.00 0.00 0.00 88 1065.0
20260905221910 76 79 3.0 8.0 0.00 0.00 0.00 88 1065.1
20260905221407 76 78 4.0 8.0 0.00 0.00 0.00 88 1065.1
20260905220903 76 76 3.0 5.0 0.00 0.00 0.00 87 1065.2
20260905220359 76 98 2.0 9.0 0.00 0.00 0.00 87 1065.1
20260905215857 76 60 5.0 9.0 0.00 0.00 0.00 87 1064.9
20260905215353 77 82 4.0 9.0 0.00 0.00 0.00 86 1065.0
20260905214849 77 77 5.0 6.0 0.00 0.00 0.00 87 1065.0
20260905214344 76 93 3.0 9.0 0.00 0.00 0.00 87 1064.8
20260905213839 77 52 6.0 10.0 0.00 0.00 0.00 87 1064.9
20260905213336 77 95 5.0 10.0 0.00 0.00 0.00 86 1065.2
20260905212835 77 78 8.0 9.0 0.00 0.00 0.00 86 1065.4
20260905212330 77 77 3.0 12.0 0.00 0.00 0.00 86 1065.4
20260905211830 78 131 6.0 6.0 0.00 0.00 0.00 85 1065.7
20260905211325 78 82 3.0 8.0 0.00 0.00 0.00 85 1065.5
20260905210822 78 95 4.0 8.0 0.00 0.00 0.00 86 1065.5
20260905210321 78 52 4.0 9.0 0.00 0.00 0.00 85 1065.4
20260905205820 78 81 8.0 9.0 0.00 0.00 0.00 85 1065.6
20260905205315 78 81 4.0 8.0 0.00 0.00 0.00 85 1065.8
20260905204814 78 171 3.0 6.0 0.00 0.00 0.00 85 1065.9
20260905204311 78 57 5.0 7.0 0.00 0.00 0.00 85 1065.9
20260905203809 78 66 6.0 9.0 0.00 0.00 0.00 85 1066.0
20260905203306 78 53 2.0 7.0 0.00 0.00 0.00 86 1065.8
20260905202801 78 69 5.0 5.0 0.00 0.00 0.00 85 1066.0
20260905202255 77 202 2.0 6.0 0.00 0.00 0.00 87 1066.0
20260905201751 77 85 3.0 4.0 0.00 0.00 0.00 87 1066.2
20260905201246 77 87 4.0 5.0 0.00 0.00 0.00 86 1066.2
20260905200741 77 85 2.0 6.0 0.00 0.00 0.00 86 1066.3
20260905200237 77 58 1.0 2.0 0.00 0.00 0.00 87 1066.6
20260905195735 76 129 0.0 4.0 0.00 0.00 0.00 87 1066.6
20260905195229 77 98 2.0 3.0 0.00 0.00 0.00 87 1066.8
20260905194725 76 150 3.0 5.0 0.00 0.00 0.00 89 1066.8
20260905194225 75 126 0.0 3.0 0.00 0.00 0.00 89 1066.7
20260905193725 75 145 2.0 4.0 0.00 0.00 0.00 88 1067.0
20260905193220 75 92 2.0 4.0 0.00 0.00 0.00 89 1067.0
20260905192715 76 132 3.0 3.0 0.00 0.00 0.00 89 1066.8
20260905192212 76 87 2.0 4.0 0.00 0.00 0.00 89 1066.9
20260905191711 75 66 4.0 5.0 0.00 0.00 0.00 90 1067.0
20260905191209 75 140 4.0 4.0 0.00 0.00 0.00 90 1067.0
20260905190708 75 89 0.0 3.0 0.00 0.00 0.00 90 1067.2
20260905190207 74 132 2.0 5.0 0.00 0.00 0.00 90 1067.0
20260905185706 75 119 5.0 8.0 0.00 0.00 0.00 89 1067.2
20260905185206 75 67 2.0 6.0 0.00 0.00 0.00 89 1067.0
20260905184701 75 99 2.0 5.0 0.00 0.00 0.00 90 1067.0
20260905184200 75 16 1.0 3.0 0.00 0.00 0.00 89 1067.3
20260905183700 75 138 6.0 8.0 0.00 0.00 0.00 91 1067.1
20260905183155 75 112 6.0 6.0 0.00 0.00 0.00 91 1067.0
20260905182654 75 96 3.0 6.0 0.00 0.00 0.00 91 1067.0
20260905182154 75 141 3.0 5.0 0.00 0.00 0.00 90 1067.2
20260905181650 75 114 2.0 6.0 0.00 0.00 0.00 91 1067.3
20260905181149 75 165 1.0 4.0 0.00 0.00 0.00 91 1067.5
20260905180643 75 91 4.0 4.0 0.00 0.00 0.00 90 1067.5
20260905180139 75 145 2.0 3.0 0.00 0.00 0.00 92 1067.6
20260905175637 75 107 1.0 2.0 0.00 0.00 0.00 90 1067.5
20260905175133 74 66 0.0 2.0 0.00 0.00 0.00 92 1067.7
20260905174629 74 77 2.0 4.0 0.00 0.00 0.00 92 1067.7
20260905174124 74 89 0.0 2.0 0.00 0.00 0.00 93 1067.6
20260905173620 73 104 0.0 4.0 0.00 0.00 0.00 94 1067.8
20260905173116 73 112 2.0 2.0 0.00 0.00 0.00 94 1067.9
20260905172615 73 121 1.0 4.0 0.00 0.00 0.00 95 1067.9
20260905172110 73 80 3.0 4.0 0.00 0.00 0.00 95 1067.8
20260905171606 73 128 3.0 3.0 0.00 0.00 0.00 95 1068.1
20260905171102 73 170 0.0 2.0 0.00 0.00 0.00 96 1068.1
20260905170558 73 160 2.0 4.0 0.00 0.00 0.00 95 1068.1
20260905170053 72 52 2.0 4.0 0.00 0.00 0.00 95 1068.1
20260905165548 73 156 2.0 3.0 0.00 0.00 0.00 95 1067.8
20260905165043 72 254 0.0 4.0 0.00 0.00 0.00 96 1067.8
20260905164543 72 88 2.0 6.0 0.00 0.00 0.00 96 1067.6
20260905164038 72 137 3.0 6.0 0.00 0.00 0.00 96 1067.7
20260905163534 72 95 4.0 6.0 0.00 0.00 0.00 96 1067.5
20260905163030 73 124 3.0 4.0 0.00 0.00 0.00 95 1067.5
20260905162526 73 145 3.0 5.0 0.00 0.00 0.00 95 1067.5
20260905162021 73 205 1.0 2.0 0.00 0.00 0.00 96 1067.4
20260905161520 72 98 4.0 5.0 0.00 0.00 0.00 96 1067.2
20260905161018 71 116 3.0 6.0 0.00 0.00 0.00 97 1067.4
20260905160517 71 132 4.0 6.0 0.00 0.00 0.00 98 1067.5
20260905160017 71 71 3.0 6.0 0.00 0.00 0.00 98 1067.6
20260905155517 71 128 3.0 8.0 0.00 0.00 0.00 99 1067.7
20260905155015 71 120 3.0 5.0 0.00 0.00 0.00 99 1067.6
20260905154511 71 149 4.0 4.0 0.00 0.00 0.00 99 1067.6
20260905154007 71 304 0.0 1.0 0.00 0.00 0.00 99 1067.6
20260905153503 70 92 3.0 4.0 0.00 0.00 0.00 99 1067.4
20260905152957 70 110 3.0 3.0 0.00 0.00 0.00 99 1067.3
20260905152456 70 84 2.0 6.0 0.00 0.00 0.00 99 1067.2
20260905151951 70 96 2.0 3.0 0.00 0.00 0.00 99 1067.2
20260905151447 69 122 4.0 6.0 0.00 0.00 0.00 99 1067.2
20260905150947 69 81 0.0 4.0 0.00 0.00 0.00 99 1067.3
20260905150442 69 57 3.0 6.0 0.00 0.00 0.00 99 1067.2
20260905145938 69 144 3.0 5.0 0.00 0.00 0.00 99 1066.9
20260905145439 69 134 2.0 5.0 0.00 0.00 0.00 99 1066.8
20260905144933 69 4 0.0 3.0 0.00 0.00 0.00 99 1066.9
20260905144429 69 70 2.0 5.0 0.00 0.00 0.00 99 1066.9
20260905143927 69 0 0.0 5.0 0.00 0.00 0.00 99 1067.1
20260905143427 69 105 2.0 4.0 0.00 0.00 0.00 99 1067.1
20260905142926 69 84 2.0 5.0 0.00 0.00 0.00 99 1067.1
20260905142425 69 131 2.0 4.0 0.00 0.00 0.00 99 1066.9
20260905141921 69 128 2.0 4.0 0.00 0.00 0.00 99 1066.9
20260905141416 69 131 2.0 3.0 0.00 0.00 0.00 99 1066.8
20260905140912 69 77 4.0 6.0 0.00 0.00 0.00 99 1066.8
20260905140407 70 96 2.0 3.0 0.00 0.00 0.00 99 1066.8
20260905135906 69 137 2.0 5.0 0.00 0.00 0.00 99 1066.7
20260905135402 69 102 2.0 5.0 0.00 0.00 0.00 99 1066.5
20260905134857 70 137 2.0 4.0 0.00 0.00 0.00 99 1066.5
20260905134355 70 76 4.0 5.0 0.00 0.00 0.00 99 1066.4
20260905133850 69 77 1.0 4.0 0.00 0.00 0.00 99 1066.5
20260905133346 70 109 3.0 4.0 0.00 0.00 0.00 99 1066.1
20260905132845 70 107 1.0 2.0 0.00 0.00 0.00 99 1066.4
20260905132340 70 2 0.0 4.0 0.00 0.00 0.00 99 1066.2
20260905131835 70 105 0.0 2.0 0.00 0.00 0.00 99 1066.1
20260905131330 70 84 2.0 3.0 0.00 0.00 0.00 99 1066.1
20260905130826 70 73 3.0 6.0 0.00 0.00 0.00 99 1065.7
20260905130324 70 104 1.0 3.0 0.00 0.00 0.00 99 1065.6
20260905125820 70 304 1.0 3.0 0.00 0.00 0.00 99 1065.5